Find Starlink 35928

NORAD ID: 66528 Int'l Des: 2025-265 Owner: SPXS Country: US Constellation: starlink operational
LEOCIRCULAR

リアルタイム位置

3D地球を読み込み中...

Starlink 35928について

説明を読み込み中...

次回通過

Passes for default location (London). Set your location on the main map for personalized predictions.

高度履歴

Loading altitude history...

軌道要素

1 66528U 25265N 26107.25675166 .00008100 00000-0 30344-3 0 9997
2 66528 43.0023 59.9621 0000980 253.9834 106.0910 15.27590187 23012
Epoch: Apr 17, 2026 • Age: 10 hours

現在のステータス

高度 483.7 km
速度 7.63 km/s
衛星直下点 -7.01°S, 153.18°E
打ち上げ日 Nov 19, 2025
運用期間 0.4 years
タイプ internet

技術仕様

分類 Payload
質量 575.00 kg
乾燥質量 530.00 kg
総質量 575.00 kg
長さ 0.30 m
直径 4.10 m
スパン 29.00 m
形状 Box + pan
製造者 SPXS
バスタイプ Starlink V2MO
フェーズステータス In Orbit
所有者/国 SPXS/US

Most Searched